Regional Weather Roundup
Issued by NWS

Home | Current Version | Previous Version | Graphics & Text | Print | Product List | Glossary On
Versions: 1 2 3 4 5 6 7 8 9 10 11 12 13 14 15 16 17 18 19 20 21 22 23 24 25 26 27 28 29 30 31 32 33 34 35 36 37 38 39 40 41 42 43 44 45 46 47 48 49 50
577
ASUS45 KBOU 141110
RWRCO

WEATHER ROUNDUP FOR COLORADO
NATIONAL WEATHER SERVICE DENVER/BOULDER CO
400 AM MST THU DEC 14 2017

NOTE: "FAIR" INDICATES FEW OR NO CLOUDS BELOW 12000 FEET WITH NO
SIGNIFICANT WEATHER AND/OR OBSTRUCTIONS TO VISIBILITY.

COZ001>005-013-030-031-141200-
...NORTHWEST COLORADO...

CITY           SKY/WX    TMP DP  RH WIND       PRES   REMARKS
CRAIG          FAIR      24  18  77 VRB3      30.17R
HAYDEN         FOG       26  26 100 SW3       30.16S VSB 1/2
MEEKER         MOCLDY    30  23  75 NE8       30.16R WCI  22
RABBIT EARS PA LGT SNOW  16  14  93 NE9G17    30.10R WCI   4
STEAMBOAT SPGS FAIR      27  26  98 CALM      30.14R
WALDEN         FAIR      19  14  79 NW9       30.15S WCI   9
$$

COZ006>008-011-141200-
...WEST CENTRAL VALLEYS...

CITY           SKY/WX    TMP DP  RH WIND       PRES   REMARKS
GRAND JUNCTION CLOUDY    37  30  75 N9        30.12S
MONTROSE       CLOUDY    33  29  85 SW7       30.13R WCI  27
EAGLE          LGT SNOW  27  25  92 CALM      30.14R FOG
RIFLE          FAIR      32  27  81 NE3       30.12S
DELTA          CLOUDY    38  19  46 NE6       30.10R
NUCLA          CLOUDY    36  28  75 W3        30.11R
$$

COZ017>023-064>068-141200-
...SOUTHWEST COLORADO...

CITY           SKY/WX    TMP DP  RH WIND       PRES   REMARKS
DURANGO        MOCLDY    25   7  46 E6        29.97S WCI  18
CORTEZ         CLOUDY    34  28  79 E3        30.01F
PAGOSA SPRINGS CLOUDY    32   6  33 CALM      29.98S
TELLURIDE      CLOUDY    27  11  51 CALM      30.06R
WOLF CREEK PAS LGT SNOW  18  18 100 CALM      30.07F
$$

COZ009-010-012-014-032>034-037-058>063-141200-
...CENTRAL COLORADO...

CITY           SKY/WX    TMP DP  RH WIND       PRES   REMARKS
ASPEN          LGT SNOW  27  25  92 N5        30.08R FOG     WCI  22
BUENA VISTA    LGT SNOW  26  23  91 CALM      30.10S
COPPER MTN     NOT AVBL
BERTHOUD PASS  LGT SNOW   7  -4  61 S10       30.06S VSB 3/4 WCI  -8
COTTONWOOD PAS SNOW      28  25  86 CALM      30.07S VSB 1/2
GUNNISON       FAIR      31  18  58 W8        30.04R WCI  23
KREMMLING      CLOUDY    34  27  75 NW12      30.13R WCI  25
LEADVILLE      LGT SNOW  19  17  92 SW5       30.05R VSB 1   WCI  12
MONARCH PASS   HVY SNOW  12  10  92 NE20      30.12S VSB<1/4 WCI  -6
SALIDA         CLOUDY    28  26  93 E5        30.18R WCI  23
SUNLIGHT       LGT SNOW  18  16  93 CALM      30.13R VSB 1
WILKERSON PASS LGT SNOW  14  10  85 E3        30.09S
$$

COZ069>075-141200-
...SAN LUIS VALLEY/SANGRE DE CRISTO MOUNTAINS...

CITY           SKY/WX    TMP DP  RH WIND       PRES   REMARKS
ALAMOSA        CLOUDY    34  10  37 E10       29.99S WCI  26
DEL NORTE      CLOUDY    34  18  53 E3        30.02S
LA VETA PASS   LGT SNOW  18  14  86 NE14G24     N/A  WCI   4
SAGUACHE       LGT SNOW  30  30 100 NE6       30.03S WCI  24
$$

COZ035-036-038>040-141200-
...NORTHERN COLORADO FRONT RANGE...

CITY           SKY/WX    TMP DP  RH WIND       PRES   REMARKS
DENVER INTL AP LGT SNOW  29  26  89 NW7       30.19S FOG     WCI  22
DMNS CITY PARK NOT AVBL
AURORA         NOT AVBL
FRONT RANGE AP LGT SNOW  31  29  94 NW6       30.20S WCI  25
ERIE MUNI ARPT FLURRIES  31  29  95 W3        30.26F
BOULDER MUN AP LGT SNOW  32  30  93 S3        30.20F
CENTENNIAL     LGT SNOW  28  27  96 N13       30.19R FOG     WCI  17
BROOMFIELD     LGT SNOW  30  28  93 W3        30.21S
FORT COLLINS   MIX PCPN  30  29  96 N9        30.19F WCI  22
LONGMONT       FLURRIES  33  30  90 SW3       30.23S
$$

COZ041-046-047-076>085-087-088-141200-
...PIKES PEAK/PALMER DIVIDE AND SOUTHERN FOOTHILLS...

CITY           SKY/WX    TMP DP  RH WIND       PRES   REMARKS
COLO. SPRINGS  FLURRIES  30  25  81 N5        30.16S WCI  25
A. F. ACADEMY  LGT SNOW  27  24  88 N13       30.14S FOG     WCI  17
SCHRIEVER AFB  FRZ RAIN  28  26  93 N3        30.15S
CHEYENNE MTN   LGT SNOW  26  23  88 NW9       30.08S WCI  17
ELLICOTT       LGT SNOW N/A N/A N/A N8        30.14S
FALCON         CLOUDY    27  23  85 N10G18    30.14S WCI  17
FORT CARSON    FLURRIES  29  28  93 N5        30.15S WCI  24
LIMON          LGT SNOW  28  27  96 NW14      30.16S FOG     WCI  17
MONUMENT HILL  LGT SNOW  23  23 100 N9        30.17R WCI  13
CANON CITY     LGT SNOW  32  32 100 E8        30.16R WCI  25
WALSENBURG     CLOUDY    34  16  47 E9        30.14R WCI  26
TRINIDAD       CLOUDY    33  14  45 NE9       30.12S WCI  25
$$

COZ042>045-048>051-090-091-141200-
...NORTHEAST COLORADO...

CITY           SKY/WX    TMP DP  RH WIND       PRES   REMARKS
GREELEY ARPT   MOCLDY    35  23  61 N8        30.20S WCI  29
AKRON          LGT SNOW  29  27  92 W15       30.15S FOG     WCI  18
BURLINGTON     CLOUDY    32  28  85 N12       30.15S WCI  23
WRAY           CLOUDY    34  32  93 W8        30.15S WCI  27
YUMA           MIX PCPN  30  28  93 W8        30.15S WCI  23
STERLING       CLOUDY    34  27  75 W6        30.15S WCI  29
HOLYOKE        FAIR      34  32  93 W9        30.13S WCI  26
FORT MORGAN    CLOUDY    31  29  95 W8        30.18S WCI  23
$$

COZ086-089-092>099-141200-
...SOUTHEAST COLORADO...

CITY           SKY/WX    TMP DP  RH WIND       PRES   REMARKS
PUEBLO         CLOUDY    34  28  79 NE7       30.18R WCI  28
LA JUNTA       CLOUDY    36  25  64 N17       30.17R
LAMAR          CLOUDY    36  23  59 N18       30.16R
SPRINGFIELD      N/A     34  18  52 N9        30.12R WCI  27
$$




USA.gov is the U.S. government's official web portal to all federal, state and local government web resources and services.